This demonstration page uses our WeatherBlox Daily Observations layout. Learn more.

Hourly Observations for July 15, 2017

Temp ( °F °C ) Dew Point ( °F °C ) Humidity (%) Winds ( mph kmh ) Pressure ( in mb ) Visibility ( mi km ) Precip ( " mm )
12:15 am 00:15 Partly Cloudy 73 23 73 23 100 100 S 5 7 29.97 1015 10 16.09344 0 0
12:35 am 00:35 Partly Cloudy 73 23 73 23 100 100 S 5 7 30 1016 10 16.09344 0 0
12:55 am 00:55 Partly Cloudy 73 23 73 23 100 100 Calm 29.97 1015 10 16.09344 0 0
1:15 am 01:15 Partly Cloudy 73 23 73 23 100 100 Calm 29.97 1015 10 16.09344 0 0
1:35 am 01:35 Mostly Cloudy 73 23 73 23 100 100 Calm 29.97 1015 10 16.09344 0 0
1:55 am 01:55 Mostly Cloudy 73 23 73 23 100 100 Calm 29.97 1015 10 16.09344 0 0
2:15 am 02:15 Partly Cloudy 73 23 73 23 100 100 S 3 6 29.97 1015 10 16.09344 0 0
2:35 am 02:35 Partly Cloudy 73 23 73 23 100 100 Calm 29.97 1015 10 16.09344 0 0
2:55 am 02:55 Partly Cloudy 73 23 73 23 100 100 Calm 29.97 1015 7 11.265408 0 0
3:15 am 03:15 Partly Cloudy 73 23 73 23 100 100 Calm 29.97 1015 10 16.09344 0 0
3:35 am 03:35 Partly Cloudy 73 23 73 23 100 100 Calm 29.97 1015 10 16.09344 0 0
3:55 am 03:55 Partly Cloudy 73 23 73 23 100 100 Calm 29.97 1015 10 16.09344 0 0
4:15 am 04:15 Clear 73 23 73 23 100 100 Calm 29.97 1015 10 16.09344 0 0
4:35 am 04:35 Partly Cloudy 73 23 73 23 100 100 W 7 11 29.97 1015 10 16.09344 0 0
4:55 am 04:55 Mostly Cloudy 77 25 73 23 89 89 WSW 5 7 29.97 1015 10 16.09344 0 0
5:15 am 05:15 Mostly Cloudy 75 24 73 23 94 94 W 5 7 29.97 1015 10 16.09344 0 0
5:35 am 05:35 Cloudy 75 24 73 23 94 94 W 5 7 29.97 1015 10 16.09344 0 0
5:55 am 05:55 Mostly Cloudy 75 24 72 22 89 89 Calm 29.97 1015 10 16.09344 0 0
6:15 am 06:15 Partly Cloudy 75 24 72 22 89 89 Calm 29.97 1015 10 16.09344 0 0
6:35 am 06:35 Sunny 73 23 72 22 94 94 W 3 6 29.97 1015 10 16.09344 0 0
6:55 am 06:55 Sunny 75 24 72 22 89 89 Calm 29.97 1015 10 16.09344 0 0
7:15 am 07:15 Sunny 75 24 72 22 89 89 W 5 7 30 1016 10 16.09344 0 0
7:35 am 07:35 Sunny 77 25 72 22 83 83 W 5 7 30 1016 10 16.09344 0 0
7:55 am 07:55 Sunny 77 25 72 22 83 83 NW 7 11 30 1016 10 16.09344 0 0
8:15 am 08:15 Sunny 79 26 72 22 79 79 NW 12 19 30 1016 10 16.09344 0 0
8:35 am 08:35 Sunny 79 26 72 22 79 79 WNW 15 24 30 1016 10 16.09344 0 0
8:55 am 08:55 Sunny 81 27 72 22 74 74 NW 14 22 30 1016 10 16.09344 0 0
9:15 am 09:15 Sunny 81 27 72 22 74 74 NW 10 17 30 1016 10 16.09344 0 0
9:35 am 09:35 Sunny 81 27 72 22 74 74 NW 16 26 30 1016 10 16.09344 0 0
9:55 am 09:55 Sunny 82 28 72 22 70 70 NW 10 17 30 1016 10 16.09344 0 0
10:15 am 10:15 Sunny 81 27 68 20 66 66 N 13 20 30 1016 10 16.09344 0 0
10:35 am 10:35 Sunny 82 28 68 20 62 62 NNW 13 20 30 1016 10 16.09344 0 0
10:55 am 10:55 Partly Cloudy 82 28 68 20 62 62 NNW 15 24 30.03 1017 10 16.09344 0 0
11:15 am 11:15 Sunny 82 28 68 20 62 62 NW 15 24 30.03 1017 10 16.09344 0 0
11:35 am 11:35 Sunny 84 29 68 20 58 58 NNW 13 20 30.03 1017 10 16.09344 0 0
11:55 am 11:55 Sunny 82 28 68 20 62 62 NNW 13 20 30.03 1017 10 16.09344 0 0
12:15 pm 12:15 Partly Cloudy 86 30 68 20 55 55 NW 10 17 30 1016 10 16.09344 0 0
12:35 pm 12:35 Sunny 86 30 66 19 52 52 NW 12 19 30 1016 10 16.09344 0 0
12:55 pm 12:55 Sunny 86 30 68 20 55 55 NW 13 20 30 1016 10 16.09344 0 0
1:15 pm 13:15 Mostly Cloudy 86 30 64 18 49 49 NNW 12 19 30 1016 10 16.09344 0 0
1:35 pm 13:35 Mostly Cloudy 86 30 64 18 49 49 N 14 22 30 1016 10 16.09344 0 0
1:55 pm 13:55 Partly Cloudy 86 30 64 18 49 49 N 12 19 30 1016 10 16.09344 0 0
2:15 pm 14:15 Sunny 86 30 66 19 52 52 NW 9 15 30 1016 10 16.09344 0 0
2:35 pm 14:35 Sunny 88 31 64 18 46 46 NW 15 24 29.94 1014 10 16.09344 0 0
2:55 pm 14:55 Sunny 88 31 64 18 46 46 NNW 9 15 29.94 1014 10 16.09344 0 0
3:15 pm 15:15 Partly Cloudy 88 31 64 18 46 46 N 8 13 29.94 1014 10 16.09344 0 0
3:35 pm 15:35 Mostly Cloudy 88 31 64 18 46 46 N 13 20 29.94 1014 10 16.09344 0 0
3:55 pm 15:55 Partly Cloudy 88 31 64 18 46 46 N 7 11 29.94 1014 10 16.09344 0 0
4:15 pm 16:15 Partly Cloudy 86 30 64 18 49 49 N 12 19 29.94 1014 10 16.09344 0 0
4:35 pm 16:35 Partly Cloudy 88 31 64 18 46 46 N 12 19 29.94 1014 10 16.09344 0 0
4:55 pm 16:55 Partly Cloudy 86 30 64 18 49 49 NNE 8 13 29.91 1013 10 16.09344 0 0
5:15 pm 17:15 Sunny 86 30 64 18 49 49 NNE 13 20 29.91 1013 10 16.09344 0 0
5:35 pm 17:35 Sunny 86 30 64 18 49 49 NNW 10 17 29.91 1013 10 16.09344 0 0
5:55 pm 17:55 Sunny 86 30 64 18 49 49 N 8 13 29.91 1013 10 16.09344 0 0
6:15 pm 18:15 Sunny 86 30 64 18 49 49 N 7 11 29.91 1013 10 16.09344 0 0
6:35 pm 18:35 Sunny 86 30 64 18 49 49 NNE 9 15 29.91 1013 10 16.09344 0 0
6:55 pm 18:55 Sunny 86 30 64 18 49 49 NNE 7 11 29.91 1013 10 16.09344 0 0
7:15 pm 19:15 Sunny 84 29 64 18 51 51 NNE 7 11 29.94 1014 10 16.09344 0 0
7:35 pm 19:35 Sunny 82 28 64 18 55 55 N 7 11 29.94 1014 10 16.09344 0 0
7:55 pm 19:55 Sunny 82 28 64 18 55 55 N 9 15 29.94 1014 10 16.09344 0 0
8:15 pm 20:15 Sunny 82 28 64 18 55 55 N 5 7 29.97 1015 10 16.09344 0 0
8:35 pm 20:35 Sunny 81 27 64 18 58 58 N 5 7 29.97 1015 10 16.09344 0 0
8:55 pm 20:55 Clear 81 27 64 18 58 58 N 5 7 29.97 1015 10 16.09344 0 0
9:15 pm 21:15 Clear 79 26 64 18 61 61 NNE 7 11 29.97 1015 10 16.09344 0 0
9:35 pm 21:35 Clear 79 26 64 18 61 61 Calm 30 1016 10 16.09344 0 0
9:55 pm 21:55 Clear 79 26 64 18 61 61 NNE 3 6 30 1016 10 16.09344 0 0
10:15 pm 22:15 Clear 77 25 64 18 65 65 NNE 5 7 30 1016 10 16.09344 0 0
10:35 pm 22:35 Clear 77 25 64 18 65 65 N 5 7 30 1016 10 16.09344 0 0
10:55 pm 22:55 Clear 77 25 64 18 65 65 N 5 7 30 1016 10 16.09344 0 0
11:15 pm 23:15 Clear 73 23 66 19 78 78 Calm 30 1016 10 16.09344 0 0
11:35 pm 23:35 Clear 73 23 66 19 78 78 Calm 30 1016 10 16.09344 0 0
11:55 pm 23:55 Clear 72 22 64 18 78 78 Calm 30 1016 10 16.09344 0 0

Powered by AerisWeather